Date,TemperatureHighF,TemperatureAvgF,TemperatureLowF,DewpointHighF,DewpointAvgF,DewpointLowF,HumidityHigh,HumidityAvg,HumidityLow,PressureMaxIn,PressureMinIn,WindSpeedMaxMPH,WindSpeedAvgMPH,GustSpeedMaxMPH,PrecipitationSumIn
2013-9-1,79.7,69.7,64.4,73.7,67.6,64.1,99,94,79,29.71,29.56,12,4,0,0.00
2013-9-2,67.3,64.9,61.9,67.0,64.6,61.6,99,99,99,29.71,29.65,22,12,0,1.09
2013-9-3,69.3,66.8,65.1,67.5,65.6,63.6,99,96,93,29.55,29.49,7,4,0,0.00
2013-9-4,80.2,68.1,60.6,67.6,62.4,56.7,99,83,47,29.68,29.54,10,3,0,0.00
2013-9-5,68.9,61.6,54.5,60.0,54.1,46.0,96,77,58,29.95,29.65,12,4,0,0.18
2013-9-6,70.5,59.5,51.4,57.3,48.6,42.8,86,68,41,30.04,29.86,16,7,0,0.00
2013-9-7,69.6,62.4,54.7,60.6,54.8,49.0,83,76,65,29.86,29.60,14,6,0,0.00
2013-9-8,67.1,61.9,54.9,58.6,51.0,41.3,89,69,47,29.89,29.51,22,8,0,0.05
2013-9-9,63.3,58.2,50.5,55.9,49.3,42.3,86,73,54,30.02,29.89,19,9,0,0.00
2013-9-10,63.0,60.0,57.4,60.9,57.3,53.2,99,91,83,29.95,29.83,16,6,0,0.02
2013-9-11,79.7,66.0,59.2,72.2,63.8,58.9,99,93,78,29.86,29.67,24,5,0,0.40
2013-9-12,66.9,63.5,60.6,66.3,62.9,59.9,99,98,93,29.78,29.46,16,6,0,1.57
2013-9-13,68.7,62.6,59.2,66.0,61.7,57.2,99,97,89,29.53,29.36,11,4,0,1.22
2013-9-14,71.6,61.7,56.3,61.5,57.0,52.5,94,85,70,29.84,29.52,10,5,0,0.00
2013-9-15,65.3,58.3,51.1,58.2,54.0,48.5,97,86,71,29.94,29.82,13,6,0,0.00
2013-9-16,75.2,58.6,46.8,61.8,52.3,38.6,93,80,59,30.09,29.78,14,4,0,0.00
2013-9-17,70.2,54.7,43.2,52.0,44.2,37.5,89,70,39,30.22,30.08,11,5,0,0.00
2013-9-18,67.8,56.6,48.0,56.5,51.6,47.6,99,85,62,30.13,29.92,9,3,0,0.00
2013-9-19,72.3,59.4,49.8,58.0,53.2,49.0,99,82,49,29.95,29.83,11,4,0,0.00
2013-9-20,73.8,60.5,51.4,59.5,56.0,50.9,99,86,60,29.90,29.84,7,3,0,0.00
2013-9-21,61.5,59.2,55.8,60.3,58.3,55.5,99,97,91,29.85,29.57,18,11,0,0.00
2013-9-22,70.0,61.3,54.1,61.6,57.7,47.1,99,89,65,29.58,29.40,20,12,0,0.47
2013-9-23,59.5,53.7,49.1,47.0,44.2,41.4,79,70,60,29.78,29.59,17,9,0,0.00
2013-9-24,60.8,53.2,49.8,47.5,44.4,41.9,83,72,58,29.77,29.63,12,6,0,0.00
2013-9-25,65.5,56.4,50.0,50.8,47.6,44.1,83,73,58,29.80,29.66,10,4,0,0.00
2013-9-26,69.4,58.2,49.8,54.9,49.7,45.5,85,74,58,29.96,29.80,14,4,0,0.00
2013-9-27,77.5,61.7,55.0,57.9,53.7,50.4,93,76,48,30.06,29.94,8,3,0,0.00
2013-9-28,73.0,58.6,52.9,58.8,54.4,51.5,99,87,57,30.14,30.06,8,3,0,0.00
2013-9-29,58.5,55.6,52.7,55.8,54.0,52.3,99,94,89,30.09,29.95,9,4,0,0.00
2013-9-30,64.4,55.0,49.1,57.4,52.6,48.8,99,92,78,29.97,29.79,7,2,0,0.00